WetterOnline ( https://www.wetteronline.de )

Wetter aktuell Wolfhagen

Aktuelles Wetter: Schauenburg-Elgershausen (317m)

6-stündlich | Neueste Meldungen
Ortszeit Temperatur Wetter
Mo, 18.11. 7:00 3.6° C bedeckt
Mo, 18.11. 1:00 4.4° C bedeckt
So, 17.11. 19:00 5.0° C leichter Regen
So, 17.11. 13:00 5.7° C bedeckt
So, 17.11. 7:00 -0.3° C bedeckt
So, 17.11. 1:00 1.0° C wolkenlos
Sa, 16.11. 19:00 2.6° C leicht bewölkt
Sa, 16.11. 13:00 3.9° C bedeckt
Ortszeit Temperatur Wetter
Mo, 18.11. 10:00 4.2° C Sprühregen
Mo, 18.11. 9:50 4.2° C Sprühregen
Mo, 18.11. 9:40 4.2° C Sprühregen
Mo, 18.11. 9:30 4.1° C Nebel
Mo, 18.11. 9:20 4.1° C Nebel
Mo, 18.11. 9:10 4.1° C Sprühregen
Mo, 18.11. 9:00 4.0° C bedeckt
Mo, 18.11. 8:30 3.9° C bedeckt
Mo, 18.11. 8:00 3.8° C bedeckt
Mo, 18.11. 7:30 3.7° C Sprühregen
Mo, 18.11. 7:00 3.6° C bedeckt
Ortszeit Relative Feuchte Sichtweite
Mo, 18.11. 7:00 99% 1.7 km
Mo, 18.11. 1:00 97% 8 km
So, 17.11. 19:00 93% 17 km
So, 17.11. 13:00 71% 65 km
So, 17.11. 7:00 98% 7 km
So, 17.11. 1:00 96% 6 km
Sa, 16.11. 19:00 92% 10 km
Sa, 16.11. 13:00 83% 30 km
Ortszeit Relative Feuchte Sichtweite
Mo, 18.11. 10:00 99% 3.0 km
Mo, 18.11. 9:50 99% -
Mo, 18.11. 9:40 99% -
Mo, 18.11. 9:30 99% 0.8 km
Mo, 18.11. 9:20 99% -
Mo, 18.11. 9:10 99% -
Mo, 18.11. 9:00 99% 1.4 km
Mo, 18.11. 8:30 97% 3.7 km
Mo, 18.11. 8:00 99% 3.7 km
Mo, 18.11. 7:30 100% 1.8 km
Mo, 18.11. 7:00 99% 1.7 km
Ortszeit Niederschlagsmenge Niederschlagsart
Mo, 18.11. 7:00 0.4 l/m2 in 12 Std. Sprühregen
Mo, 18.11. 1:00 0.4 l/m2 in 6 Std. Regen
So, 17.11. 19:00 0.1 l/m2 in 12 Std. Regen
So, 17.11. 13:00 0.1 l/m2 in 6 Std. Regen
So, 17.11. 7:00 0.0 l/m2 in 12 Std. -
So, 17.11. 1:00 0.0 l/m2 in 6 Std. -
Sa, 16.11. 19:00 0.1 l/m2 in 12 Std. -
Sa, 16.11. 13:00 0.1 l/m2 in 6 Std. Regen
Ortszeit Niederschlagsmenge Niederschlagsart
Mo, 18.11. 10:00 0.1 l/m2 in 1 Std. Regen
Mo, 18.11. 9:50 keine Meldung -
Mo, 18.11. 9:40 keine Meldung -
Mo, 18.11. 9:30 0.1 l/m2 in 1 Std. -
Mo, 18.11. 9:20 keine Meldung -
Mo, 18.11. 9:10 keine Meldung -
Mo, 18.11. 9:00 0.1 l/m2 in 1 Std. -
Mo, 18.11. 8:30 0.1 l/m2 in 1 Std. -
Mo, 18.11. 8:00 0.1 l/m2 in 1 Std. Sprühregen
Mo, 18.11. 7:30 0.1 l/m2 in 1 Std. -
Mo, 18.11. 7:00 0.1 l/m2 in 1 Std. Sprühregen
Ortszeit Stärke Spitze Richtung
km/h Bft. km/h Grad Sektor
Mo, 18.11. 7:00 6 1 17 260° W
Mo, 18.11. 1:00 4 1 25 30° NO
So, 17.11. 19:00 6 1 31 20° N
So, 17.11. 13:00 15 3 33 40° NO
So, 17.11. 7:00 9 2 11 300° NW
So, 17.11. 1:00 6 1 13 20° N
Sa, 16.11. 19:00 9 2 20 110° O
Sa, 16.11. 13:00 9 2 20 220° SW
Ortszeit Stärke Spitze Richtung
km/h Bft. km/h Grad Sektor
Mo, 18.11. 10:00 4 1 7 30° NO
Mo, 18.11. 9:50 4 1 - 30° NO
Mo, 18.11. 9:40 4 1 - 40° NO
Mo, 18.11. 9:30 0 0 4 - -
Mo, 18.11. 9:20 0 0 - 20° N
Mo, 18.11. 9:10 0 0 - 360° N
Mo, 18.11. 9:00 0 0 4 - -
Mo, 18.11. 8:30 2 1 6 250° W
Mo, 18.11. 8:00 4 1 7 350° N
Mo, 18.11. 7:30 4 1 7 330° NW
Mo, 18.11. 7:00 6 1 7 260° W
Ortszeit Untergrenze Bedeckung Gattung
total tief tief mittel hoch
Mo, 18.11. 7:00 60 m 8/8 8/8 - - -
Mo, 18.11. 1:00 120 m 8/8 8/8 - - -
So, 17.11. 19:00 180 m 8/8 8/8 - - -
So, 17.11. 13:00 420 m 8/8 8/8 - - -
So, 17.11. 7:00 5100 m 8/8 8/8 - - -
So, 17.11. 1:00 - 0/8 0/8 - - -
Sa, 16.11. 19:00 270 m 4/8 4/8 - - -
Sa, 16.11. 13:00 420 m 8/8 8/8 - - -
Ortszeit Bedeckungsgrad in Achtel und Wolkenuntergrenze
Mo, 18.11. 10:00 8(30m)
Mo, 18.11. 9:50 8(30m)
Mo, 18.11. 9:40 8(60m)
Mo, 18.11. 9:30 8(60m)
Mo, 18.11. 9:20 8(60m)
Mo, 18.11. 9:10 8(60m)
Mo, 18.11. 9:00 8(60m)
Mo, 18.11. 8:30 8(120m)
Mo, 18.11. 8:00 8(90m)
Mo, 18.11. 7:30 8(90m)
Mo, 18.11. 7:00 8(60m)
Ortszeit Luftdruck NN (hPa) Tendenz (hPa in 3 Std.)
Mo, 18.11. 7:00 1005 + 1,1
Mo, 18.11. 1:00 1004 - 0,9
So, 17.11. 19:00 1006 - 1,5
So, 17.11. 13:00 1010 - 2,4
So, 17.11. 7:00 1014 - 0,2
So, 17.11. 1:00 1015 + 0,5
Sa, 16.11. 19:00 1014 + 2,5
Sa, 16.11. 13:00 1010 + 1,3
Ortszeit Luftdruck NN (hPa) Tendenz (hPa in 3 Std.)
Mo, 18.11. 10:00 1006 + 1,0
Mo, 18.11. 9:50 1006 keine Meldung
Mo, 18.11. 9:40 1006 keine Meldung
Mo, 18.11. 9:30 1006 + 1,7
Mo, 18.11. 9:20 1006 keine Meldung
Mo, 18.11. 9:10 1006 keine Meldung
Mo, 18.11. 9:00 1006 + 1,8
Mo, 18.11. 8:30 1006 + 1,4
Mo, 18.11. 8:00 1006 + 1,4
Mo, 18.11. 7:30 1006 + 1,5
Mo, 18.11. 7:00 1005 + 1,1
Ortszeit Schneehöhe (cm)
Mo, 18.11. 7:00 0
Mo, 18.11. 1:00 0
So, 17.11. 19:00 0
So, 17.11. 13:00 0
So, 17.11. 7:00 0
So, 17.11. 1:00 0
Sa, 16.11. 19:00 0
Sa, 16.11. 13:00 0
Ortszeit Schneehöhe (cm)
Mo, 18.11. 10:00 0
Mo, 18.11. 9:50 0
Mo, 18.11. 9:40 0
Mo, 18.11. 9:30 0
Mo, 18.11. 9:20 0
Mo, 18.11. 9:10 0
Mo, 18.11. 9:00 0
Mo, 18.11. 8:30 0
Mo, 18.11. 8:00 0
Mo, 18.11. 7:30 0
Mo, 18.11. 7:00 0
Link zu dieser Seite / Seite empfehlen

Das Wetter in ...